Startpagina
METAR-TAF:

METAR-TAF

Vliegvelden :

Skelton Airport

Eureka, Alaska, Verenigde Staten

breedte: 61-56N, lengte: 147-10W, hoogte: 1002 m

Actueel weer

Dit bericht is 1 uur en het 6 minuten geleden gemaakt, om 21:56 UTC
Wind 3 kt uit het noordnoordoosten
Temperatuur -2°C
Vochtigheid 86%
Druk 998 hPa
Zicht: 16.1 km
Onbewolkt

METAR: PAZK 192156Z AUTO 03003KT 10SM CLR M02/M04 A2947 RMK AO2 SLP035 T10171044 FZRANO

Tijdstip: 15:02 (23:02 UTC)


TAF: ontbreekt

Waarnemingen en weersverwachtingen van meer dan 4000 vliegvelden (METAR en TAF).

De beschikbare stations zijn de gele en rode punten op de kaart.

Ga met uw muis naar het station om de naam te zien.

Klik dan om waarnemingen en weersverwachtingen te zien.

kaart wijzigen: klik op de groene knoppen met een zwart kruis om in te zoomen, op de groene knop met een streepje om uit te zoomen of op de groene pijlen voor aangrenzende kaarten.


METAR-TAF: